GW0353 Weather Reports


time (UTC)temp
F
wind
direction
speed
knots
gust
knots
rain 1hr
in
rain 24hr
in
rain mn
in
humidity
%
barometer
mb
20260905120602 40 0 0.0 0.9 0.00 0.00 0.00 80 1020.9
20260905120107 40 0 0.0 1.7 0.00 0.00 0.00 81 1021.0
20260905115558 40 216 0.0 1.7 0.00 0.00 0.00 81 1020.8
20260905115058 41 170 0.0 1.7 0.00 0.00 0.00 78 1021.0
20260905114602 41 0 0.0 2.6 0.00 0.00 0.00 79 1020.9
20260905114102 41 0 0.0 2.6 0.00 0.00 0.00 82 1021.0
20260905113558 41 170 0.0 2.6 0.00 0.00 0.00 80 1021.0
20260905113107 41 0 0.0 1.7 0.00 0.00 0.00 81 1020.9
20260905112558 41 169 0.0 2.6 0.00 0.00 0.00 82 1020.9
20260905112058 40 0 0.0 2.6 0.00 0.00 0.00 83 1020.9
20260905111646 40 158 0.0 2.6 0.00 0.00 0.00 82 1021.0
20260905111057 40 0 0.9 2.6 0.00 0.00 0.00 81 1020.9
20260905110558 40 0 0.0 1.7 0.00 0.00 0.00 80 1021.0
20260905105557 41 0 0.0 1.7 0.00 0.00 0.00 82 1021.0
20260905105059 41 0 0.0 2.6 0.00 0.00 0.00 82 1020.9
20260905104608 41 0 0.0 2.6 0.00 0.00 0.00 83 1021.1
20260905104058 41 0 0.9 2.6 0.00 0.00 0.00 81 1020.9
20260905103559 41 240 0.0 2.6 0.00 0.00 0.00 82 1021.0
20260905103104 41 188 0.0 1.7 0.00 0.00 0.00 82 1021.0
20260905102558 42 155 0.0 2.6 0.00 0.00 0.00 83 1021.0
20260905102058 41 0 0.0 2.6 0.00 0.00 0.00 80 1021.1
20260905101607 42 0 0.0 1.7 0.00 0.00 0.00 82 1021.1
20260905101058 42 0 0.0 1.7 0.00 0.00 0.00 82 1021.1
20260905100558 42 169 0.0 1.7 0.00 0.00 0.00 82 1021.2
20260905100114 41 0 0.9 1.7 0.00 0.00 0.00 81 1021.2
20260905095557 41 210 0.0 2.6 0.00 0.00 0.00 83 1021.3
20260905095058 41 0 0.9 2.6 0.00 0.00 0.00 80 1021.1
20260905094607 41 0 0.0 1.7 0.00 0.00 0.00 81 1021.3
20260905094100 42 0 0.0 1.7 0.00 0.00 0.00 79 1021.1
20260905093558 42 0 0.0 2.6 0.00 0.00 0.00 82 1021.1
20260905093107 42 185 0.9 2.6 0.00 0.00 0.00 81 1021.1
20260905092600 42 208 0.0 0.9 0.00 0.00 0.00 80 1021.1
20260905092102 42 0 0.0 0.9 0.00 0.00 0.00 83 1021.1
20260905091606 42 0 0.0 1.7 0.00 0.00 0.00 82 1021.3
20260905091057 42 0 0.0 1.7 0.00 0.00 0.00 82 1021.2
20260905090603 42 0 0.0 1.7 0.00 0.00 0.00 80 1021.3
20260905090105 42 0 0.0 1.7 0.00 0.00 0.00 79 1021.2
20260905085601 43 233 0.0 1.7 0.00 0.00 0.00 81 1021.3
20260905085057 43 0 0.9 1.7 0.00 0.00 0.00 81 1021.3
20260905084607 42 0 0.0 1.7 0.00 0.00 0.00 80 1021.2
20260905084058 42 0 0.0 0.9 0.00 0.00 0.00 80 1021.3
20260905083602 43 0 0.0 0.0 0.00 0.00 0.00 79 1021.3
20260905083106 43 0 0.0 1.7 0.00 0.00 0.00 80 1021.3
20260905082558 42 0 0.0 1.7 0.00 0.00 0.00 79 1021.3
20260905082058 43 0 0.0 1.7 0.00 0.00 0.00 79 1021.3
20260905081601 43 0 0.0 1.7 0.00 0.00 0.00 77 1021.3
20260905081058 43 181 0.0 0.9 0.00 0.00 0.00 80 1021.3
20260905080601 43 198 0.0 0.0 0.00 0.00 0.00 76 1021.4
20260905080129 44 0 0.0 0.9 0.00 0.00 0.00 78 1021.4
20260905075558 44 0 0.0 0.9 0.00 0.00 0.00 78 1021.3
20260905075057 44 170 0.0 0.9 0.00 0.00 0.00 77 1021.4
20260905074605 44 0 0.0 1.7 0.00 0.00 0.00 78 1021.4
20260905074059 44 0 0.0 1.7 0.00 0.00 0.00 77 1021.3
20260905073558 44 233 0.0 0.9 0.00 0.00 0.00 79 1021.3
20260905073104 44 0 0.0 0.0 0.00 0.00 0.00 79 1021.3
20260905072558 44 0 0.0 0.9 0.00 0.00 0.00 76 1021.3
20260905072101 44 0 0.0 0.9 0.00 0.00 0.00 78 1021.2
20260905071604 44 0 0.0 0.0 0.00 0.00 0.00 76 1021.3
20260905071102 45 0 0.0 0.0 0.00 0.00 0.00 75 1021.2
20260905070558 45 0 0.0 0.9 0.00 0.00 0.00 77 1021.2
20260905070110 45 0 0.0 3.5 0.00 0.00 0.00 76 1021.1
20260905065558 46 236 0.0 3.5 0.00 0.00 0.00 73 1021.1
20260905065058 46 226 0.9 2.6 0.00 0.00 0.00 76 1020.9
20260905064606 46 0 0.0 0.0 0.00 0.00 0.00 74 1021.1
20260905064059 47 0 0.0 0.0 0.00 0.00 0.00 74 1020.9
20260905063559 47 218 0.0 0.0 0.00 0.00 0.00 74 1020.9
20260905063128 47 0 0.0 0.0 0.00 0.00 0.00 75 1020.9
20260905062558 47 0 0.0 0.9 0.00 0.00 0.00 75 1020.8
20260905062058 48 0 0.0 2.6 0.00 0.00 0.00 74 1020.8
20260905061615 48 0 0.0 2.6 0.00 0.00 0.00 74 1020.8
20260905061100 48 126 1.7 2.6 0.00 0.00 0.00 73 1020.8
20260905060558 49 0 0.0 1.7 0.00 0.00 0.00 73 1020.8
20260905060108 48 114 0.9 1.7 0.00 0.00 0.00 74 1020.8
20260905055601 48 151 0.0 0.9 0.00 0.00 0.00 73 1020.7
20260905055100 48 0 0.0 0.9 0.00 0.00 0.00 73 1020.6
20260905054608 49 0 0.0 0.9 0.00 0.00 0.00 72 1020.5
20260905054058 49 231 0.0 2.6 0.00 0.00 0.00 71 1020.5
20260905053559 50 0 0.0 2.6 0.00 0.00 0.00 70 1020.5
20260905053111 50 71 0.9 2.6 0.00 0.00 0.00 71 1020.5
20260905052558 50 136 0.0 3.5 0.00 0.00 0.00 69 1020.5
20260905052101 50 107 1.7 3.5 0.00 0.00 0.00 69 1020.6
20260905051601 50 101 1.7 4.3 0.00 0.00 0.00 70 1020.4
20260905051058 50 85 2.6 4.3 0.00 0.00 0.00 71 1020.3
20260905050558 50 96 1.7 2.6 0.00 0.00 0.00 71 1020.4
20260905050111 50 148 0.0 0.9 0.00 0.00 0.00 69 1020.3
20260905045558 50 184 0.0 1.7 0.00 0.00 0.00 68 1020.4
20260905045058 50 89 0.0 2.6 0.00 0.00 0.00 68 1020.2
20260905044608 51 148 0.0 2.6 0.00 0.00 0.00 68 1020.2
20260905044058 51 113 0.9 2.6 0.00 0.00 0.00 67 1020.1
20260905043558 51 79 0.9 2.6 0.00 0.00 0.00 68 1020.1
20260905043102 51 130 0.9 5.2 0.00 0.00 0.00 68 1020.0
20260905042559 51 128 2.6 5.2 0.00 0.00 0.00 69 1019.9
20260905042058 51 134 0.9 2.6 0.00 0.00 0.00 67 1019.8
20260905041607 51 115 1.7 2.6 0.00 0.00 0.00 66 1020.0
20260905041059 51 170 0.0 2.6 0.00 0.00 0.00 65 1019.9
20260905040558 52 0 0.0 0.9 0.00 0.00 0.00 66 1019.8
20260905040110 52 0 0.0 3.5 0.00 0.00 0.00 65 1019.9
20260905035602 53 0 0.0 4.3 0.00 0.00 0.00 63 1019.8
20260905035058 53 0 1.7 4.3 0.00 0.00 0.00 64 1019.9
20260905034619 54 0 1.7 4.3 0.00 0.00 0.00 64 1019.7
20260905034059 54 76 0.9 4.3 0.00 0.00 0.00 62 1019.7
20260905033558 54 95 3.5 4.3 0.00 0.00 0.00 63 1019.7
20260905033119 54 99 2.6 3.5 0.00 0.00 0.00 62 1019.8
20260905032559 54 92 0.9 3.5 0.00 0.00 0.00 61 1019.7
20260905032058 55 0 0.0 2.6 0.00 0.00 0.00 62 1019.7
20260905031615 55 0 0.9 2.6 0.00 0.00 0.00 62 1019.7
20260905031058 56 150 0.0 7.0 0.00 0.00 0.00 60 1019.7
20260905030558 56 0 0.9 7.8 0.00 0.00 0.00 58 1019.4
20260905030106 57 68 3.5 7.8 0.00 0.00 0.00 57 1019.4
20260905025559 57 80 2.6 7.8 0.00 0.00 0.00 58 1019.2
20260905025102 58 77 2.6 7.0 0.00 0.00 0.00 55 1019.0
20260905024605 59 30 1.7 7.0 0.00 0.00 0.00 51 1018.9
20260905024058 61 51 3.5 7.0 0.00 0.00 0.00 47 1018.8
20260905023558 63 49 0.0 4.3 0.00 0.00 0.00 26 1018.5
20260905023127 64 295 0.9 10.4 0.00 0.00 0.00 25 1018.5
20260905022558 64 133 3.5 10.4 0.00 0.00 0.00 24 1018.5
20260905022059 63 241 0.9 4.3 0.00 0.00 0.00 26 1018.6
20260905021605 64 0 2.6 6.1 0.00 0.00 0.00 26 1018.7
20260905021058 65 128 1.7 6.1 0.00 0.00 0.00 24 1018.6
20260905020558 64 134 1.7 7.8 0.00 0.00 0.00 25 1018.6
20260905020106 65 238 2.6 8.7 0.00 0.00 0.00 24 1018.5
20260905015558 65 165 3.5 9.6 0.00 0.00 0.00 25 1018.6
20260905015058 65 109 3.5 9.6 0.00 0.00 0.00 24 1018.5
20260905014606 66 104 4.3 9.6 0.00 0.00 0.00 23 1018.5
20260905014101 66 127 2.6 11.3 0.00 0.00 0.00 24 1018.6
20260905013557 66 0 0.9 11.3 0.00 0.00 0.00 23 1018.6
20260905013103 67 265 4.3 11.3 0.00 0.00 0.00 23 1018.6
20260905012558 67 165 2.6 6.1 0.00 0.00 0.00 24 1018.5
20260905012101 67 115 2.6 6.1 0.00 0.00 0.00 23 1018.4
20260905011606 68 79 0.0 7.0 0.00 0.00 0.00 22 1018.4
20260905011101 68 268 0.9 7.0 0.00 0.00 0.00 23 1018.3
20260905010559 69 144 3.5 7.0 0.00 0.00 0.00 23 1018.4
20260905010112 70 169 0.0 4.3 0.00 0.00 0.00 23 1018.4
20260905005558 70 0 0.9 6.1 0.00 0.00 0.00 25 1018.4
20260905005101 70 158 0.9 7.0 0.00 0.00 0.00 24 1018.2
20260905004633 70 150 1.7 8.7 0.00 0.00 0.00 22 1018.2
20260905004058 70 153 3.5 8.7 0.00 0.00 0.00 22 1018.3
20260905003600 70 207 1.7 7.8 0.00 0.00 0.00 23 1018.4
20260905003124 70 238 1.7 7.8 0.00 0.00 0.00 24 1018.3
20260905002558 70 257 0.9 15.6 0.00 0.00 0.00 22 1018.3
20260905002058 70 340 3.5 15.6 0.00 0.00 0.00 23 1018.4
20260905001605 70 153 5.2 15.6 0.00 0.00 0.00 22 1018.3
20260905001102 70 226 2.6 12.2 0.00 0.00 0.00 22 1018.3
20260905000558 71 188 1.7 9.6 0.00 0.00 0.00 23 1018.2
20260905000144 71 101 4.3 9.6 0.00 0.00 0.00 23 1018.3
20260904235558 71 219 1.7 10.4 0.00 0.00 0.00 23 1018.2
20260904235057 71 280 3.5 10.4 0.00 0.00 0.00 23 1018.2
20260904234607 71 214 4.3 11.3 0.00 0.00 0.00 24 1018.3
20260904234057 70 226 1.7 11.3 0.00 0.00 0.00 24 1018.1
20260904233602 71 148 3.5 11.3 0.00 0.00 0.00 25 1018.2
20260904233105 71 287 1.7 11.3 0.00 0.00 0.00 22 1018.1
20260904232558 71 221 3.5 12.2 0.00 0.00 0.00 25 1018.2
20260904232101 71 333 4.3 13.0 0.00 0.00 0.00 24 1018.1
20260904231606 71 169 3.5 13.0 0.00 0.00 0.00 24 1018.1
20260904231058 72 82 3.5 13.0 0.00 0.00 0.00 23 1018.2
20260904230558 72 177 3.5 12.2 0.00 0.00 0.00 26 1018.1
20260904230117 71 245 3.5 12.2 0.00 0.00 0.00 26 1018.0
20260904225557 72 71 4.3 9.6 0.00 0.00 0.00 26 1018.1
20260904225101 72 271 2.6 11.3 0.00 0.00 0.00 26 1018.2
20260904224605 72 279 4.3 11.3 0.00 0.00 0.00 26 1018.1
20260904224102 72 139 4.3 10.4 0.00 0.00 0.00 27 1018.1
20260904223601 73 149 3.5 10.4 0.00 0.00 0.00 26 1018.1
20260904223107 73 151 3.5 11.3 0.00 0.00 0.00 26 1018.2
20260904222601 73 155 4.3 11.3 0.00 0.00 0.00 25 1018.1
20260904222057 73 200 1.7 13.9 0.00 0.00 0.00 25 1018.0
20260904221608 73 235 5.2 13.9 0.00 0.00 0.00 24 1018.0
20260904221059 73 286 3.5 11.3 0.00 0.00 0.00 25 1018.0
20260904220559 73 244 2.6 11.3 0.00 0.00 0.00 25 1017.9
20260904220109 73 210 2.6 10.4 0.00 0.00 0.00 24 1018.0
20260904215600 74 172 3.5 10.4 0.00 0.00 0.00 25 1018.2
20260904215058 73 256 2.6 8.7 0.00 0.00 0.00 25 1018.1
20260904214607 73 89 3.5 8.7 0.00 0.00 0.00 26 1018.0
20260904214058 74 207 2.6 8.7 0.00 0.00 0.00 25 1018.1
20260904213558 73 86 2.6 11.3 0.00 0.00 0.00 24 1017.9
20260904213108 73 172 2.6 11.3 0.00 0.00 0.00 26 1018.2
20260904212558 73 307 5.2 20.9 0.00 0.00 0.00 25 1018.0
20260904212058 72 186 8.7 20.9 0.00 0.00 0.00 26 1018.0
20260904211613 74 175 6.1 11.3 0.00 0.00 0.00 25 1017.9
20260904211057 73 205 0.9 4.3 0.00 0.00 0.00 26 1017.9
20260904210559 73 250 1.7 4.3 0.00 0.00 0.00 26 1017.8
20260904210107 74 80 0.9 5.2 0.00 0.00 0.00 25 1017.7
20260904205558 74 285 1.7 6.1 0.00 0.00 0.00 25 1017.6
20260904205057 73 285 1.7 7.8 0.00 0.00 0.00 25 1017.6
20260904204604 73 325 3.5 7.8 0.00 0.00 0.00 25 1017.5
20260904204058 72 299 2.6 7.8 0.00 0.00 0.00 26 1017.6
20260904203558 71 64 1.7 7.0 0.00 0.00 0.00 27 1017.5
20260904203108 71 32 0.9 9.6 0.00 0.00 0.00 27 1017.6
20260904202557 69 348 1.7 11.3 0.00 0.00 0.00 26 1017.5
20260904202058 69 53 0.9 11.3 0.00 0.00 0.00 28 1017.5
20260904201633 69 60 4.3 10.4 0.00 0.00 0.00 27 1017.5
20260904201057 69 181 3.5 13.0 0.00 0.00 0.00 28 1017.5
20260904200558 69 21 5.2 13.0 0.00 0.00 0.00 28 1017.5
20260904200110 69 151 3.5 13.0 0.00 0.00 0.00 29 1017.6
20260904195602 68 51 6.1 13.0 0.00 0.00 0.00 28 1017.6
20260904195059 68 73 3.5 15.6 0.00 0.00 0.00 28 1017.6
20260904194606 68 42 5.2 15.6 0.00 0.00 0.00 28 1017.6
20260904194058 68 92 8.7 15.6 0.00 0.00 0.00 28 1017.7
20260904193558 68 67 5.2 13.0 0.00 0.00 0.00 29 1017.7
20260904193107 68 68 5.2 14.8 0.00 0.00 0.00 31 1017.7
20260904192558 67 53 5.2 14.8 0.00 0.00 0.00 29 1017.7
20260904192100 68 54 3.5 12.2 0.00 0.00 0.00 29 1017.8
20260904191603 67 311 4.3 13.9 0.00 0.00 0.00 30 1017.8
20260904191100 67 44 7.0 13.9 0.00 0.00 0.00 30 1017.7
20260904190602 67 44 4.3 15.6 0.00 0.00 0.00 30 1017.8
20260904190105 68 151 5.2 15.6 0.00 0.00 0.00 30 1017.7
20260904185601 68 154 4.3 13.0 0.00 0.00 0.00 31 1017.7
20260904185101 67 42 4.3 11.3 0.00 0.00 0.00 30 1017.9
20260904184620 67 27 5.2 11.3 0.00 0.00 0.00 30 1017.8
20260904184058 67 114 2.6 10.4 0.00 0.00 0.00 31 1017.9
20260904183601 66 162 5.2 11.3 0.00 0.00 0.00 32 1017.9
20260904183117 67 87 4.3 11.3 0.00 0.00 0.00 33 1017.9
20260904182558 68 146 2.6 9.6 0.00 0.00 0.00 31 1017.9
20260904182057 66 115 3.5 9.6 0.00 0.00 0.00 32 1017.9
20260904181606 66 335 3.5 8.7 0.00 0.00 0.00 32 1017.9
20260904181058 66 125 3.5 12.2 0.00 0.00 0.00 34 1017.9
20260904180558 66 163 5.2 12.2 0.00 0.00 0.00 34 1017.9
20260904180109 66 120 5.2 9.6 0.00 0.00 0.00 33 1018.1
20260904175557 67 80 0.9 4.3 0.00 0.00 0.00 35 1018.1
20260904175059 68 79 1.7 3.5 0.00 0.00 0.00 37 1018.0
20260904174605 68 321 0.9 2.6 0.00 0.00 0.00 36 1018.1
20260904174058 69 0 0.0 2.6 0.00 0.00 0.00 37 1018.1
20260904173557 67 310 0.0 2.6 0.00 0.00 0.00 37 1017.9
20260904173104 66 0 0.9 2.6 0.00 0.00 0.00 38 1017.9
20260904172558 65 314 0.9 2.6 0.00 0.00 0.00 39 1017.9
20260904172059 64 0 0.0 5.2 0.00 0.00 0.00 41 1018.0
20260904171616 64 138 0.0 5.2 0.00 0.00 0.00 40 1018.0
20260904171102 64 37 0.9 4.3 0.00 0.00 0.00 40 1018.1
20260904170558 62 12 0.9 4.3 0.00 0.00 0.00 43 1018.0
20260904170109 62 83 0.9 3.5 0.00 0.00 0.00 44 1018.1
20260904165600 62 45 0.9 3.5 0.00 0.00 0.00 44 1018.1
20260904165101 61 51 0.0 2.6 0.00 0.00 0.00 46 1018.2
20260904164634 60 0 0.9 2.6 0.00 0.00 0.00 45 1018.2
20260904164058 60 103 0.9 3.5 0.00 0.00 0.00 45 1018.2
20260904163558 59 39 0.9 3.5 0.00 0.00 0.00 47 1018.2
20260904163103 59 174 1.7 3.5 0.00 0.00 0.00 48 1018.3
20260904162557 60 87 0.9 2.6 0.00 0.00 0.00 47 1018.3
20260904162057 59 63 0.0 2.6 0.00 0.00 0.00 49 1018.3
20260904161605 58 117 0.9 1.7 0.00 0.00 0.00 49 1018.3
20260904161057 57 104 0.0 2.6 0.00 0.00 0.00 50 1018.3
20260904160558 57 80 0.9 3.5 0.00 0.00 0.00 51 1018.5
20260904160112 57 115 1.7 3.5 0.00 0.00 0.00 52 1018.4
20260904155558 58 71 0.0 3.5 0.00 0.00 0.00 52 1018.5
20260904155057 57 0 0.9 3.5 0.00 0.00 0.00 52 1018.5
20260904154605 56 71 0.0 1.7 0.00 0.00 0.00 53 1018.6
20260904154057 56 0 0.0 3.5 0.00 0.00 0.00 56 1018.6
20260904153558 55 59 0.9 3.5 0.00 0.00 0.00 57 1018.5
20260904153113 55 127 0.9 1.7 0.00 0.00 0.00 58 1018.5
20260904152558 55 49 0.0 2.6 0.00 0.00 0.00 58 1018.5
20260904152057 54 94 0.9 2.6 0.00 0.00 0.00 59 1018.6
20260904151604 53 58 0.0 1.7 0.00 0.00 0.00 60 1018.6
20260904151057 53 58 0.9 1.7 0.00 0.00 0.00 61 1018.5
20260904150558 52 0 0.0 1.7 0.00 0.00 0.00 63 1018.6
20260904150107 51 67 0.9 2.6 0.00 0.00 0.00 63 1018.5
20260904145558 51 0 0.9 2.6 0.00 0.00 0.00 63 1018.4
20260904145059 51 56 0.0 0.9 0.00 0.00 0.00 64 1018.4
20260904144619 50 0 0.0 4.3 0.00 0.00 0.00 66 1018.5
20260904144058 48 0 0.9 4.3 0.00 0.00 0.00 67 1018.4
20260904143558 48 51 0.9 4.3 0.00 0.00 0.00 69 1018.3
20260904143106 47 82 1.7 4.3 0.00 0.00 0.00 70 1018.3
20260904142558 46 46 2.6 3.5 0.00 0.00 0.00 70 1018.2
20260904142101 46 0 0.0 1.7 0.00 0.00 0.00 71 1018.2
20260904141606 46 115 0.0 2.6 0.00 0.00 0.00 70 1018.1
20260904141059 46 82 0.0 3.5 0.00 0.00 0.00 71 1018.2
20260904140600 46 101 1.7 3.5 0.00 0.00 0.00 72 1018.1
20260904140110 45 104 0.9 2.6 0.00 0.00 0.00 73 1018.1
20260904135559 45 0 0.9 2.6 0.00 0.00 0.00 74 1018.1
20260904135100 43 131 0.0 1.7 0.00 0.00 0.00 77 1017.9
20260904134604 44 0 0.0 2.6 0.00 0.00 0.00 76 1018.0
20260904134058 44 153 0.0 2.6 0.00 0.00 0.00 76 1018.0
20260904133600 44 129 1.7 2.6 0.00 0.00 0.00 77 1018.0
20260904133106 44 163 0.0 3.5 0.00 0.00 0.00 74 1017.9
20260904132559 45 0 0.0 3.5 0.00 0.00 0.00 75 1018.1
20260904132059 44 103 0.0 3.5 0.00 0.00 0.00 76 1017.9
20260904131612 44 0 1.7 3.5 0.00 0.00 0.00 76 1017.8
20260904131100 43 157 0.0 1.7 0.00 0.00 0.00 76 1017.9
20260904130558 43 0 0.0 2.6 0.00 0.00 0.00 79 1017.8
20260904130109 42 0 0.0 2.6 0.00 0.00 0.00 76 1017.8
20260904125559 42 0 0.9 3.5 0.00 0.00 0.00 81 1017.7
20260904125059 41 157 0.0 3.5 0.00 0.00 0.00 79 1017.5
20260904124607 41 0 1.7 3.5 0.00 0.00 0.00 80 1017.6
20260904124059 41 0 0.0 2.6 0.00 0.00 0.00 78 1017.5
20260904123558 41 232 0.0 1.7 0.00 0.00 0.00 81 1017.4
20260904123105 41 0 0.0 1.7 0.00 0.00 0.00 80 1017.5
20260904122558 41 0 0.0 2.6 0.00 0.00 0.00 79 1017.5
20260904122101 41 0 0.0 2.6 0.00 0.00 0.00 79 1017.4
20260904121606 41 0 0.0 2.6 0.00 0.00 0.00 80 1017.4
20260904121058 41 0 0.0 1.7 0.00 0.00 0.00 80 1017.4